Time,TemperatureF,DewpointF,PressureIn,WindDirection,WindDirectionDegrees,WindSpeedMPH,WindSpeedGustMPH,Humidity,HourlyPrecipIn,Conditions,Clouds,dailyrainin,SoftwareType,DateUTC
2013-05-16 00:10:00,62.4,47.0,28.15,SSW,202,0.0,0.0,57,0.00,CLR,,0.00,WeatherDisplay:10.37,2013-05-16 04:10:00,
2013-05-16 00:20:00,62.1,47.1,28.15,SSW,202,0.0,0.0,58,0.00,CLR,,0.00,WeatherDisplay:10.37,2013-05-16 04:20:00,
2013-05-16 00:30:00,61.7,48.2,28.15,SSW,202,0.0,0.0,61,0.00,CLR,,0.00,WeatherDisplay:10.37,2013-05-16 04:30:00,
2013-05-16 00:40:00,61.9,48.7,28.15,SSW,202,0.0,0.0,62,0.00,CLR,,0.00,WeatherDisplay:10.37,2013-05-16 04:40:00,
2013-05-16 00:50:00,62.1,48.9,28.15,SSW,202,0.0,0.0,62,0.00,CLR,,0.00,WeatherDisplay:10.37,2013-05-16 04:50:00,
2013-05-16 01:00:00,62.1,48.0,28.15,SSW,202,0.0,0.0,60,0.00,CLR,,0.00,WeatherDisplay:10.37,2013-05-16 05:00:00,
2013-05-16 01:10:00,61.7,47.2,28.15,SSW,202,0.0,0.0,59,0.00,CLR,,0.00,WeatherDisplay:10.37,2013-05-16 05:10:00,
2013-05-16 01:20:00,61.7,48.1,28.15,SSW,202,0.0,0.0,61,0.00,CLR,,0.00,WeatherDisplay:10.37,2013-05-16 05:20:00,
2013-05-16 01:30:00,61.3,47.3,28.15,SSW,202,0.0,0.0,60,0.00,CLR,,0.00,WeatherDisplay:10.37,2013-05-16 05:30:00,
2013-05-16 01:40:00,60.8,47.3,28.15,SSW,202,0.0,0.0,61,0.00,CLR,,0.00,WeatherDisplay:10.37,2013-05-16 05:40:00,
2013-05-16 01:50:00,60.4,48.2,28.15,SSW,202,0.0,0.0,64,0.00,CLR,,0.00,WeatherDisplay:10.37,2013-05-16 05:50:00,
2013-05-16 02:00:00,60.1,48.3,28.15,SSW,202,0.0,0.0,65,0.00,CLR,,0.00,WeatherDisplay:10.37,2013-05-16 06:00:00,
2013-05-16 02:10:00,59.7,47.9,28.15,SSW,202,0.0,0.0,65,0.00,CLR,,0.00,WeatherDisplay:10.37,2013-05-16 06:10:00,
2013-05-16 02:20:00,59.5,48.2,28.15,SSW,202,0.0,0.0,66,0.00,CLR,,0.00,WeatherDisplay:10.37,2013-05-16 06:20:00,
2013-05-16 02:30:00,59.4,48.4,28.15,SSW,202,0.0,0.0,67,0.00,CLR,,0.00,WeatherDisplay:10.37,2013-05-16 06:30:00,
2013-05-16 02:40:00,59.2,48.6,28.15,SSW,192,1.0,2.0,68,0.00,CLR,,0.00,WeatherDisplay:10.37,2013-05-16 06:40:00,
2013-05-16 02:50:00,59.0,48.8,28.15,South,180,0.0,2.0,69,0.00,CLR,,0.00,WeatherDisplay:10.37,2013-05-16 06:50:00,
2013-05-16 03:00:00,58.5,47.9,28.15,South,180,0.0,0.0,68,0.00,CLR,,0.00,WeatherDisplay:10.37,2013-05-16 07:00:00,
2013-05-16 03:10:00,58.1,47.2,28.15,South,180,0.0,0.0,67,0.00,CLR,,0.00,WeatherDisplay:10.37,2013-05-16 07:10:00,
2013-05-16 03:20:00,57.9,48.9,28.15,South,180,1.0,2.0,72,0.00,CLR,,0.00,WeatherDisplay:10.37,2013-05-16 07:20:00,
2013-05-16 03:30:00,58.0,50.1,28.15,South,186,0.0,2.0,75,0.00,CLR,,0.00,WeatherDisplay:10.37,2013-05-16 07:30:00,
2013-05-16 03:40:00,58.1,50.6,28.12,South,173,0.0,1.0,76,0.00,CLR,,0.00,WeatherDisplay:10.37,2013-05-16 07:40:00,
2013-05-16 03:50:00,57.9,50.4,28.12,South,180,0.0,0.0,76,0.00,CLR,,0.00,WeatherDisplay:10.37,2013-05-16 07:50:00,
2013-05-16 04:00:00,57.9,50.4,28.12,South,180,0.0,0.0,76,0.00,CLR,,0.00,WeatherDisplay:10.37,2013-05-16 08:00:00,
2013-05-16 04:10:00,57.6,49.7,28.15,South,180,0.0,0.0,75,0.00,CLR,,0.00,WeatherDisplay:10.37,2013-05-16 08:10:00,
2013-05-16 04:20:00,57.6,50.8,28.15,South,180,0.0,0.0,78,0.00,CLR,,0.00,WeatherDisplay:10.37,2013-05-16 08:20:00,
2013-05-16 04:30:00,57.4,50.9,28.15,South,180,0.0,0.0,79,0.00,CLR,,0.00,WeatherDisplay:10.37,2013-05-16 08:30:00,
2013-05-16 04:40:00,57.4,50.9,28.15,South,180,0.0,0.0,79,0.00,CLR,,0.00,WeatherDisplay:10.37,2013-05-16 08:40:00,
2013-05-16 04:50:00,57.0,50.2,28.15,South,180,0.0,0.0,78,0.00,CLR,,0.00,WeatherDisplay:10.37,2013-05-16 08:50:00,
2013-05-16 05:00:00,56.8,50.4,28.15,South,180,0.0,0.0,79,0.00,CLR,,0.00,WeatherDisplay:10.37,2013-05-16 09:00:00,
2013-05-16 05:10:00,56.7,49.9,28.15,South,180,0.0,0.0,78,0.00,CLR,,0.00,WeatherDisplay:10.37,2013-05-16 09:10:00,
2013-05-16 05:20:00,56.3,49.5,28.15,South,180,0.0,0.0,78,0.00,CLR,,0.00,WeatherDisplay:10.37,2013-05-16 09:20:00,
2013-05-16 05:30:00,56.3,49.5,28.15,South,180,0.0,0.0,78,0.00,CLR,,0.00,WeatherDisplay:10.37,2013-05-16 09:30:00,
2013-05-16 05:40:00,56.0,49.2,28.15,South,180,0.0,0.0,78,0.00,CLR,,0.00,WeatherDisplay:10.37,2013-05-16 09:40:00,
2013-05-16 05:50:00,55.9,50.5,28.15,South,180,0.0,0.0,82,0.00,CLR,,0.00,WeatherDisplay:10.37,2013-05-16 09:50:00,
2013-05-16 06:00:00,55.9,50.9,28.15,South,180,0.0,0.0,83,0.00,CLR,,0.00,WeatherDisplay:10.37,2013-05-16 10:00:00,
2013-05-16 06:10:00,55.8,50.7,28.15,South,180,0.0,0.0,83,0.00,CLR,,0.00,WeatherDisplay:10.37,2013-05-16 10:10:00,
2013-05-16 06:20:00,55.9,52.1,28.15,South,180,0.0,0.0,87,0.00,CLR,,0.00,WeatherDisplay:10.37,2013-05-16 10:20:00,
2013-05-16 06:30:00,55.9,52.1,28.15,South,180,0.0,0.0,87,0.00,CLR,,0.00,WeatherDisplay:10.37,2013-05-16 10:30:00,
2013-05-16 06:40:00,55.8,51.0,28.15,South,180,0.0,0.0,84,0.00,CLR,,0.00,WeatherDisplay:10.37,2013-05-16 10:40:00,
2013-05-16 06:50:00,55.6,50.8,28.15,South,180,0.0,0.0,84,0.00,CLR,,0.00,WeatherDisplay:10.37,2013-05-16 10:50:00,
2013-05-16 07:00:00,55.8,51.0,28.15,South,180,0.0,0.0,84,0.00,CLR,,0.00,WeatherDisplay:10.37,2013-05-16 11:00:00,
2013-05-16 07:10:00,56.1,51.7,28.15,South,180,0.0,0.0,85,0.00,CLR,,0.00,WeatherDisplay:10.37,2013-05-16 11:10:00,
2013-05-16 07:20:00,56.5,52.0,28.15,South,180,0.0,0.0,85,0.00,CLR,,0.00,WeatherDisplay:10.37,2013-05-16 11:20:00,
2013-05-16 07:30:00,56.9,52.7,28.15,South,180,0.0,0.0,86,0.00,CLR,,0.00,WeatherDisplay:10.37,2013-05-16 11:30:00,
2013-05-16 07:40:00,57.4,53.2,28.15,South,180,0.0,0.0,86,0.00,CLR,,0.00,WeatherDisplay:10.37,2013-05-16 11:40:00,
2013-05-16 07:50:00,57.7,53.3,28.15,South,180,0.0,0.0,85,0.00,CLR,,0.00,WeatherDisplay:10.37,2013-05-16 11:50:00,
2013-05-16 08:00:00,58.3,54.1,28.15,South,180,0.0,0.0,86,0.00,CLR,,0.00,WeatherDisplay:10.37,2013-05-16 12:00:00,
2013-05-16 08:10:00,59.0,54.5,28.18,South,180,0.0,0.0,85,0.00,CLR,,0.00,WeatherDisplay:10.37,2013-05-16 12:10:00,
2013-05-16 08:20:00,59.9,55.0,28.18,South,180,0.0,0.0,84,0.00,CLR,,0.00,WeatherDisplay:10.37,2013-05-16 12:20:00,
2013-05-16 08:30:00,60.7,55.5,28.18,South,180,0.0,1.0,83,0.00,CLR,,0.00,WeatherDisplay:10.37,2013-05-16 12:30:00,
2013-05-16 08:40:00,61.3,54.3,28.18,SSW,202,1.0,3.0,78,0.00,CLR,,0.00,WeatherDisplay:10.37,2013-05-16 12:40:00,
2013-05-16 08:50:00,61.8,53.1,28.18,SSW,202,0.0,2.0,73,0.00,CLR,,0.00,WeatherDisplay:10.37,2013-05-16 12:50:00,
2013-05-16 09:00:00,62.2,51.1,28.18,SSW,202,1.0,3.0,67,0.00,CLR,,0.00,WeatherDisplay:10.37,2013-05-16 13:00:00,
2013-05-16 09:10:00,62.9,48.3,28.18,SSW,202,0.0,3.0,59,0.00,CLR,,0.00,WeatherDisplay:10.37,2013-05-16 13:10:00,
2013-05-16 09:20:00,63.5,48.9,28.18,SSW,202,0.0,1.0,59,0.00,CLR,,0.00,WeatherDisplay:10.37,2013-05-16 13:20:00,
2013-05-16 09:30:00,65.1,50.9,28.18,SSW,208,2.0,3.0,60,0.00,CLR,,0.00,WeatherDisplay:10.37,2013-05-16 13:30:00,
2013-05-16 09:40:00,65.8,49.7,28.18,South,187,1.0,2.0,56,0.00,CLR,,0.00,WeatherDisplay:10.37,2013-05-16 13:40:00,
2013-05-16 09:50:00,66.4,47.2,28.18,SSW,202,2.0,5.0,50,0.00,CLR,,0.00,WeatherDisplay:10.37,2013-05-16 13:50:00,
2013-05-16 10:00:00,67.3,46.4,28.18,SSW,204,2.0,5.0,47,0.00,CLR,,0.00,WeatherDisplay:10.37,2013-05-16 14:00:00,
2013-05-16 10:10:00,68.5,47.5,28.21,SSW,202,2.0,2.0,47,0.00,CLR,,0.00,WeatherDisplay:10.37,2013-05-16 14:10:00,
2013-05-16 10:20:00,69.0,45.6,28.18,SSW,209,3.0,5.0,43,0.00,CLR,,0.00,WeatherDisplay:10.37,2013-05-16 14:20:00,
2013-05-16 10:30:00,70.0,46.4,28.18,SSW,202,5.0,6.0,43,0.00,CLR,,0.00,WeatherDisplay:10.37,2013-05-16 14:30:00,
2013-05-16 10:40:00,70.1,45.3,28.18,SSW,202,6.0,6.0,41,0.00,CLR,,0.00,WeatherDisplay:10.37,2013-05-16 14:40:00,
2013-05-16 10:50:00,70.5,45.7,28.18,SSW,202,3.0,6.0,41,0.00,CLR,,0.00,WeatherDisplay:10.37,2013-05-16 14:50:00,
2013-05-16 11:00:00,71.3,47.6,28.18,SSW,202,3.0,6.0,43,0.00,CLR,,0.00,WeatherDisplay:10.37,2013-05-16 15:00:00,
2013-05-16 11:10:00,71.4,43.8,28.21,South,189,5.0,7.0,37,0.00,CLR,,0.00,WeatherDisplay:10.37,2013-05-16 15:10:00,
2013-05-16 11:20:00,71.7,44.7,28.21,South,181,6.0,8.0,38,0.00,CLR,,0.00,WeatherDisplay:10.37,2013-05-16 15:20:00,
2013-05-16 11:30:00,71.1,44.2,28.21,SSW,200,3.0,8.0,38,0.00,CLR,,0.00,WeatherDisplay:10.37,2013-05-16 15:30:00,
2013-05-16 11:40:00,70.6,43.1,28.21,South,180,3.0,3.0,37,0.00,CLR,,0.00,WeatherDisplay:10.37,2013-05-16 15:40:00,
2013-05-16 11:50:00,70.5,43.7,28.21,South,191,2.0,5.0,38,0.00,CLR,,0.00,WeatherDisplay:10.37,2013-05-16 15:50:00,
2013-05-16 12:00:00,70.7,43.1,28.21,SSW,213,3.0,7.0,37,0.00,CLR,,0.00,WeatherDisplay:10.37,2013-05-16 16:00:00,
2013-05-16 12:10:00,70.9,44.0,28.21,South,175,3.0,7.0,38,0.00,CLR,,0.00,WeatherDisplay:10.37,2013-05-16 16:10:00,
2013-05-16 12:20:00,70.9,44.0,28.21,SSW,200,5.0,7.0,38,0.00,CLR,,0.00,WeatherDisplay:10.37,2013-05-16 16:20:00,
2013-05-16 12:30:00,71.4,44.5,28.21,SW,216,5.0,7.0,38,0.00,CLR,,0.00,WeatherDisplay:10.37,2013-05-16 16:30:00,
2013-05-16 12:40:00,71.6,44.6,28.18,SW,215,2.0,6.0,38,0.00,CLR,,0.00,WeatherDisplay:10.37,2013-05-16 16:40:00,
2013-05-16 12:50:00,71.8,44.1,28.21,SW,224,3.0,6.0,37,0.00,CLR,,0.00,WeatherDisplay:10.37,2013-05-16 16:50:00,
2013-05-16 13:00:00,72.1,44.4,28.21,SSW,204,5.0,6.0,37,0.00,CLR,,0.00,WeatherDisplay:10.37,2013-05-16 17:00:00,
2013-05-16 13:10:00,72.7,44.9,28.18,SW,228,3.0,9.0,37,0.00,CLR,,0.00,WeatherDisplay:10.37,2013-05-16 17:10:00,
2013-05-16 13:20:00,73.6,47.1,28.18,SSW,211,5.0,5.0,39,0.00,CLR,,0.00,WeatherDisplay:10.37,2013-05-16 17:20:00,
2013-05-16 13:30:00,73.9,44.5,28.18,SSW,205,3.0,9.0,35,0.00,CLR,,0.00,WeatherDisplay:10.37,2013-05-16 17:30:00,
2013-05-16 13:40:00,74.9,45.4,28.18,WSW,238,6.0,9.0,35,0.00,CLR,,0.00,WeatherDisplay:10.37,2013-05-16 17:40:00,
2013-05-16 13:50:00,74.8,43.7,28.18,SW,229,3.0,6.0,33,0.00,CLR,,0.00,WeatherDisplay:10.37,2013-05-16 17:50:00,
2013-05-16 14:00:00,74.5,43.5,28.18,SSW,202,3.0,3.0,33,0.00,CLR,,0.00,WeatherDisplay:10.37,2013-05-16 18:00:00,
2013-05-16 14:10:00,74.7,43.6,28.18,SSW,194,3.0,6.0,33,0.00,CLR,,0.00,WeatherDisplay:10.37,2013-05-16 18:10:00,
2013-05-16 14:20:00,74.7,44.4,28.18,SSW,204,3.0,6.0,34,0.00,CLR,,0.00,WeatherDisplay:10.37,2013-05-16 18:20:00,
2013-05-16 14:30:00,74.4,44.9,28.18,SW,229,5.0,6.0,35,0.00,CLR,,0.00,WeatherDisplay:10.37,2013-05-16 18:30:00,
2013-05-16 14:40:00,74.3,44.1,28.18,SSW,198,3.0,6.0,34,0.00,CLR,,0.00,WeatherDisplay:10.37,2013-05-16 18:40:00,
2013-05-16 14:50:00,74.5,45.8,28.18,SSW,210,6.0,7.0,36,0.00,CLR,,0.00,WeatherDisplay:10.37,2013-05-16 18:50:00,
2013-05-16 15:00:00,75.4,45.1,28.18,SSW,201,5.0,6.0,34,0.00,CLR,,0.00,WeatherDisplay:10.37,2013-05-16 19:00:00,
2013-05-16 15:10:00,75.9,43.9,28.18,South,183,7.0,7.0,32,0.00,CLR,,0.00,WeatherDisplay:10.37,2013-05-16 19:10:00,
2013-05-16 15:20:00,75.0,43.1,28.18,SW,220,6.0,8.0,32,0.00,CLR,,0.00,WeatherDisplay:10.37,2013-05-16 19:20:00,
2013-05-16 15:30:00,76.0,44.0,28.18,SSW,205,2.0,8.0,32,0.00,CLR,,0.00,WeatherDisplay:10.37,2013-05-16 19:30:00,
2013-05-16 15:40:00,75.9,44.7,28.18,SSW,202,5.0,7.0,33,0.00,CLR,,0.00,WeatherDisplay:10.37,2013-05-16 19:40:00,
2013-05-16 15:50:00,75.6,42.8,28.18,SW,234,2.0,7.0,31,0.00,CLR,,0.00,WeatherDisplay:10.37,2013-05-16 19:50:00,
2013-05-16 16:00:00,75.4,42.6,28.18,SSW,211,2.0,5.0,31,0.00,CLR,,0.00,WeatherDisplay:10.37,2013-05-16 20:00:00,
2013-05-16 16:10:00,75.5,43.6,28.18,SSW,203,3.0,5.0,32,0.00,CLR,,0.00,WeatherDisplay:10.37,2013-05-16 20:10:00,
2013-05-16 16:20:00,76.6,44.5,28.18,SSW,193,5.0,5.0,32,0.00,CLR,,0.00,WeatherDisplay:10.37,2013-05-16 20:20:00,
2013-05-16 16:30:00,75.4,42.6,28.18,SSW,202,5.0,5.0,31,0.00,CLR,,0.00,WeatherDisplay:10.37,2013-05-16 20:30:00,
2013-05-16 16:40:00,74.7,44.4,28.18,SSW,202,5.0,5.0,34,0.00,CLR,,0.00,WeatherDisplay:10.37,2013-05-16 20:40:00,
2013-05-16 16:50:00,74.8,43.0,28.18,SW,218,5.0,5.0,32,0.00,CLR,,0.00,WeatherDisplay:10.37,2013-05-16 20:50:00,
2013-05-16 17:00:00,75.4,41.8,28.18,South,186,5.0,6.0,30,0.00,CLR,,0.00,WeatherDisplay:10.37,2013-05-16 21:00:00,
2013-05-16 17:10:00,75.6,41.1,28.18,SSE,158,5.0,5.0,29,0.00,CLR,,0.00,WeatherDisplay:10.37,2013-05-16 21:10:00,
2013-05-16 17:20:00,75.6,41.1,28.18,South,181,5.0,5.0,29,0.00,CLR,,0.00,WeatherDisplay:10.37,2013-05-16 21:20:00,
2013-05-16 17:30:00,75.0,41.5,28.18,SSW,198,6.0,6.0,30,0.00,CLR,,0.00,WeatherDisplay:10.37,2013-05-16 21:30:00,
2013-05-16 17:40:00,75.4,42.6,28.18,South,180,6.0,6.0,31,0.00,CLR,,0.00,WeatherDisplay:10.37,2013-05-16 21:40:00,
2013-05-16 17:50:00,76.3,43.4,28.18,SW,214,3.0,5.0,31,0.00,CLR,,0.00,WeatherDisplay:10.37,2013-05-16 21:50:00,
2013-05-16 18:00:00,76.3,44.2,28.18,WSW,248,3.0,3.0,32,0.00,CLR,,0.00,WeatherDisplay:10.37,2013-05-16 22:00:00,
2013-05-16 18:10:00,75.2,44.9,28.18,SW,233,5.0,7.0,34,0.00,CLR,,0.00,WeatherDisplay:10.37,2013-05-16 22:10:00,
2013-05-16 18:20:00,73.9,43.8,28.18,SSW,202,6.0,7.0,34,0.00,CLR,,0.00,WeatherDisplay:10.37,2013-05-16 22:20:00,
2013-05-16 18:30:00,73.0,43.8,28.18,SSW,202,6.0,6.0,35,0.00,CLR,,0.00,WeatherDisplay:10.37,2013-05-16 22:30:00,
2013-05-16 18:40:00,72.7,44.2,28.15,SSW,202,6.0,6.0,36,0.00,CLR,,0.00,WeatherDisplay:10.37,2013-05-16 22:40:00,
2013-05-16 18:50:00,72.1,44.4,28.18,SSW,202,3.0,5.0,37,0.00,CLR,,0.00,WeatherDisplay:10.37,2013-05-16 22:50:00,
2013-05-16 19:00:00,72.0,45.6,28.18,SSW,201,2.0,4.0,39,0.00,CLR,,0.00,WeatherDisplay:10.37,2013-05-16 23:00:00,
2013-05-16 19:10:00,72.1,45.8,28.18,SSW,203,2.0,3.0,39,0.00,CLR,,0.00,WeatherDisplay:10.37,2013-05-16 23:10:00,
2013-05-16 19:20:00,71.8,46.8,28.18,SSW,202,2.0,2.0,41,0.00,CLR,,0.00,WeatherDisplay:10.37,2013-05-16 23:20:00,
2013-05-16 19:30:00,71.4,47.1,28.18,SSW,202,2.0,0.0,42,0.00,CLR,,0.00,WeatherDisplay:10.37,2013-05-16 23:30:00,
2013-05-16 19:40:00,70.5,46.9,28.18,SSW,202,0.0,2.0,43,0.00,CLR,,0.00,WeatherDisplay:10.37,2013-05-16 23:40:00,
2013-05-16 19:50:00,69.4,46.6,28.18,SSW,202,0.0,0.0,44,0.00,CLR,,0.00,WeatherDisplay:10.37,2013-05-16 23:50:00,
2013-05-16 20:00:00,68.4,46.2,28.18,South,182,0.0,0.0,45,0.00,CLR,,0.00,WeatherDisplay:10.37,2013-05-17 00:00:00,
2013-05-16 20:10:00,67.8,46.3,28.18,South,180,0.0,0.0,46,0.00,CLR,,0.00,WeatherDisplay:10.37,2013-05-17 00:10:00,
2013-05-16 20:20:00,67.3,46.9,28.18,South,180,0.0,0.0,48,0.00,CLR,,0.00,WeatherDisplay:10.37,2013-05-17 00:20:00,
2013-05-16 20:30:00,66.6,49.4,28.18,South,180,0.0,0.0,54,0.00,CLR,,0.00,WeatherDisplay:10.37,2013-05-17 00:30:00,
2013-05-16 20:40:00,66.0,50.3,28.21,South,180,0.0,0.0,57,0.00,CLR,,0.00,WeatherDisplay:10.37,2013-05-17 00:40:00,
2013-05-16 20:50:00,65.3,49.2,28.18,South,180,0.0,0.0,56,0.00,CLR,,0.00,WeatherDisplay:10.37,2013-05-17 00:50:00,
2013-05-16 21:00:00,65.1,49.5,28.18,East,90,1.0,2.0,57,0.00,CLR,,0.00,WeatherDisplay:10.37,2013-05-17 01:00:00,
2013-05-16 21:10:00,64.5,48.9,28.18,ENE,58,0.0,2.0,57,0.00,CLR,,0.00,WeatherDisplay:10.37,2013-05-17 01:10:00,
2013-05-16 21:20:00,64.2,50.0,28.18,NE,45,0.0,0.0,60,0.00,CLR,,0.00,WeatherDisplay:10.37,2013-05-17 01:20:00,
2013-05-16 21:30:00,63.9,49.7,28.18,NE,45,0.0,0.0,60,0.00,CLR,,0.00,WeatherDisplay:10.37,2013-05-17 01:30:00,
2013-05-16 21:40:00,63.9,49.7,28.21,NNE,22,0.0,0.0,60,0.00,CLR,,0.00,WeatherDisplay:10.37,2013-05-17 01:40:00,
2013-05-16 21:50:00,63.0,48.9,28.21,NNE,22,0.0,0.0,60,0.00,CLR,,0.00,WeatherDisplay:10.37,2013-05-17 01:50:00,
2013-05-16 22:00:00,62.4,50.1,28.21,NNE,22,0.0,0.0,64,0.00,CLR,,0.00,WeatherDisplay:10.37,2013-05-17 02:00:00,
2013-05-16 22:10:00,62.1,50.2,28.21,NNE,22,0.0,0.0,65,0.00,CLR,,0.00,WeatherDisplay:10.37,2013-05-17 02:10:00,
2013-05-16 22:20:00,61.8,51.5,28.21,NNE,22,0.0,0.0,69,0.00,CLR,,0.00,WeatherDisplay:10.37,2013-05-17 02:20:00,
2013-05-16 22:30:00,61.5,51.3,28.21,NNE,22,0.0,0.0,69,0.00,CLR,,0.00,WeatherDisplay:10.37,2013-05-17 02:30:00,
2013-05-16 22:40:00,61.5,51.6,28.21,NNE,22,0.0,0.0,70,0.00,CLR,,0.00,WeatherDisplay:10.37,2013-05-17 02:40:00,
2013-05-16 22:50:00,61.3,51.1,28.21,NNE,22,0.0,0.0,69,0.00,CLR,,0.00,WeatherDisplay:10.37,2013-05-17 02:50:00,
2013-05-16 23:00:00,61.2,51.3,28.21,NNE,27,0.0,0.0,70,0.00,CLR,,0.00,WeatherDisplay:10.37,2013-05-17 03:00:00,
2013-05-16 23:10:00,61.7,53.3,28.18,NE,45,1.0,2.0,74,0.00,CLR,,0.00,WeatherDisplay:10.37,2013-05-17 03:10:00,
2013-05-16 23:20:00,61.2,52.4,28.18,ESE,103,1.0,2.0,73,0.00,CLR,,0.00,WeatherDisplay:10.37,2013-05-17 03:20:00,
2013-05-16 23:30:00,61.0,51.5,28.18,NE,45,2.0,2.0,71,0.00,CLR,,0.00,WeatherDisplay:10.37,2013-05-17 03:30:00,
2013-05-16 23:40:00,61.0,51.9,28.18,NNE,22,0.0,2.0,72,0.00,CLR,,0.00,WeatherDisplay:10.37,2013-05-17 03:40:00,
2013-05-16 23:50:00,60.6,51.9,28.18,NNE,22,0.0,0.0,73,0.00,CLR,,0.00,WeatherDisplay:10.37,2013-05-17 03:50:00,